Weather reports worldwide

Advertisment
Sete, France (7641): temperature & dewpoint: 18.01.2020 02:00:00 - 24.01.2020 02:00:00 (CET)Sete, France (7641): wind speed & gusts: 18.01.2020 02:00:00 - 24.01.2020 02:00:00 (CET)Sete, France (7641): wind direction: 18.01.2020 02:00:00 - 24.01.2020 02:00:00 (CET)Sete, France (7641): reduced air pressure: 18.01.2020 02:00:00 - 24.01.2020 02:00:00 (CET)Sete, France (7641): visibility: 18.01.2020 02:00:00 - 24.01.2020 02:00:00 (CET)Sete, France (7641): precipitation: 18.01.2020 02:00:00 - 24.01.2020 02:00:00 (CET)
Date & Time tt [°C] td [°C] ff [km/h] ff [kn] fx [km/h] fx [kn] dd ppp [hPa] vv [km] rr [mm]
24.01.2020 02:00:00 - - - - - - - - - -
24.01.2020 01:00:00 12,8 11,7 24 13 49 27 ESE 1023,7 - 0,0
24.01.2020 00:00:00 12,8 11,5 23 12 57 31 ESE 1024,1 - 0,0
23.01.2020 23:00:00 12,6 11,7 26 14 61 33 ESE 1024,0 - 7,0
23.01.2020 22:00:00 12,0 10,9 22 12 57 31 ESE 1024,3 - 4,8
23.01.2020 21:00:00 11,6 10,3 32 17 77 42 SSE 1024,2 - 3,9
23.01.2020 20:00:00 13,1 12,2 29 15 61 33 ESE 1023,3 - 1,2
23.01.2020 19:00:00 13,0 11,6 29 16 61 33 ESE 1023,3 8 0,6
23.01.2020 18:00:00 13,3 11,0 33 18 62 34 ESE 1023,0 - 0,0
23.01.2020 17:00:00 13,2 10,7 30 16 64 35 ESE 1022,6 - 0,0
23.01.2020 16:00:00 13,2 10,7 31 17 63 34 E 1022,6 8 0,0
23.01.2020 15:00:00 13,2 10,6 29 15 59 32 E 1022,9 - 0,0
23.01.2020 14:00:00 10,6 7,7 29 16 51 28 NE 1023,0 - 0,0
23.01.2020 13:00:00 10,6 6,9 29 16 50 27 NE 1023,8 8 0,0
23.01.2020 12:00:00 10,6 6,3 28 15 55 30 NE 1024,6 - 0,0
23.01.2020 11:00:00 9,6 6,1 34 18 53 28 NE 1024,4 - 0,0
23.01.2020 10:00:00 9,2 4,8 28 15 50 27 NE 1024,5 8 0,0
23.01.2020 09:00:00 8,6 3,2 32 18 57 31 NE 1024,5 - 0,0
23.01.2020 08:00:00 8,2 2,0 35 19 58 32 NE 1024,2 - 0,0
23.01.2020 07:00:00 8,4 2,0 35 19 54 29 NE 1024,0 - 0,0
23.01.2020 06:00:00 8,3 1,7 35 19 55 30 NE 1024,0 - 0,0
23.01.2020 05:00:00 9,2 2,1 23 13 65 35 NE 1024,8 - 0,0
23.01.2020 04:00:00 8,6 1,3 40 22 63 34 NE 1024,1 8 0,0
23.01.2020 03:00:00 9,0 1,2 31 17 51 27 NE 1025,4 - 0,0
23.01.2020 02:00:00 8,5 0,7 27 15 38 20 NNE 1025,7 - 0,0
23.01.2020 01:00:00 8,8 1,2 26 14 41 22 NNE 1025,8 - 0,0
23.01.2020 00:00:00 9,1 1,7 28 15 40 22 NNE 1025,9 - 0,0
22.01.2020 23:00:00 9,0 2,3 26 14 43 23 NNE 1025,9 - 0,0
22.01.2020 22:00:00 8,8 2,6 27 15 46 25 NE 1026,0 - 0,0
22.01.2020 21:00:00 8,6 2,6 31 17 49 26 NNE 1025,9 - 0,0
22.01.2020 20:00:00 9,0 3,0 30 16 47 25 NNE 1025,9 - 0,0
22.01.2020 19:00:00 9,5 3,2 31 17 48 26 NE 1025,7 12 0,0
22.01.2020 18:00:00 10,2 3,7 34 18 49 26 NE 1025,4 - 0,0
22.01.2020 17:00:00 10,0 4,4 31 17 50 27 NE 1025,7 - 0,0
22.01.2020 16:00:00 10,3 4,9 34 18 54 29 NE 1025,7 - 0,0
22.01.2020 15:00:00 10,1 4,9 35 19 58 31 NE 1025,9 - 0,0
22.01.2020 14:00:00 9,4 5,0 34 19 58 31 NNE 1026,7 - 0,0
22.01.2020 13:00:00 8,7 5,1 32 17 57 31 NE 1027,6 12 0,0
22.01.2020 12:00:00 7,7 4,6 34 19 56 30 NNE 1028,2 - 0,6
22.01.2020 11:00:00 7,9 3,9 34 18 58 32 NE 1028,5 - 0,2
22.01.2020 10:00:00 7,6 4,0 37 20 59 32 NNE 1028,1 - 0,2
22.01.2020 09:00:00 7,4 4,0 39 21 63 34 NNE 1027,5 - 0,0
22.01.2020 08:00:00 6,7 4,4 42 23 61 33 NNE 1026,9 - 0,8
22.01.2020 07:00:00 7,0 3,8 43 23 70 38 NNE 1026,6 12 1,0
22.01.2020 06:00:00 7,1 3,2 44 24 70 38 NNE 1026,5 - 1,0
22.01.2020 05:00:00 8,5 1,4 42 23 65 35 NNE 1026,9 - 0,4
22.01.2020 04:00:00 8,4 1,8 39 21 67 36 NNE 1028,0 15 0,2
22.01.2020 03:00:00 8,6 0,1 39 21 67 36 NE 1028,1 - 0,0
22.01.2020 02:00:00 8,5 -0,3 41 22 61 33 NE 1028,8 - 0,0
22.01.2020 01:00:00 8,4 -0,4 39 21 62 34 NE 1029,1 - 0,0
22.01.2020 00:00:00 8,4 -0,1 41 22 62 34 NE 1029,5 15 0,2
21.01.2020 23:00:00 8,4 0,8 37 20 58 31 NE 1030,0 15 0,0
21.01.2020 22:00:00 9,1 0,5 39 21 64 35 NE 1030,4 - 0,0
21.01.2020 21:00:00 9,7 0,8 37 20 56 30 NNE 1030,8 - 0,0
21.01.2020 20:00:00 9,8 1,2 34 18 55 30 NNE 1031,1 - 0,0
21.01.2020 19:00:00 9,7 1,6 33 18 50 27 NNE 1031,1 12 0,0
21.01.2020 18:00:00 9,6 2,0 32 17 54 29 NE 1030,9 - 0,0
21.01.2020 17:00:00 9,0 2,8 32 17 50 27 NE 1031,0 20 0,0
21.01.2020 16:00:00 8,6 3,0 35 19 55 30 NE 1031,3 20 0,0
21.01.2020 15:00:00 8,7 2,7 35 19 63 34 NE 1031,4 - 0,0
21.01.2020 14:00:00 8,5 2,9 40 21 61 33 NNE 1032,1 - 0,0
21.01.2020 13:00:00 8,1 3,0 35 19 61 33 NNE 1033,2 20 0,0
21.01.2020 12:00:00 7,8 3,1 41 22 67 36 NNE 1033,7 - 0,0
21.01.2020 11:00:00 7,4 3,3 42 23 67 36 NNE 1034,1 - 0,0
21.01.2020 10:00:00 6,8 3,0 39 21 66 36 NE 1033,9 20 0,0
21.01.2020 09:00:00 5,7 3,4 41 22 68 37 NNE 1033,4 - 0,0
21.01.2020 08:00:00 5,3 2,8 41 22 66 36 NNE 1033,3 15 0,2
21.01.2020 07:00:00 4,8 2,8 43 23 72 39 NNE 1033,2 15 0,4
21.01.2020 06:00:00 5,2 2,4 46 25 68 37 NNE 1032,9 - 0,2
21.01.2020 05:00:00 5,2 1,5 41 22 67 36 NNE 1033,4 - 0,0
21.01.2020 04:00:00 5,5 0,7 35 19 59 32 NNE 1034,0 15 0,0
21.01.2020 03:00:00 5,2 0,4 38 20 66 35 NNE 1034,8 - 0,0
21.01.2020 02:00:00 5,7 1,0 36 19 57 31 NNE 1034,9 - 0,0
21.01.2020 01:00:00 5,7 1,0 34 18 50 27 NNE 1035,3 - 0,0
21.01.2020 00:00:00 5,1 0,3 31 17 49 27 NNE 1035,8 - 0,4
20.01.2020 23:00:00 6,2 -0,5 30 16 46 25 NNE 1035,8 - 0,0
20.01.2020 22:00:00 7,0 -2,7 23 12 45 24 NE 1036,2 - 0,0
20.01.2020 21:00:00 6,9 -3,4 21 11 46 25 NE 1035,5 - 0,0
20.01.2020 20:00:00 7,1 -3,2 29 16 43 23 NNE 1034,7 - 0,0
20.01.2020 19:00:00 7,7 -3,8 19 11 36 19 NNE 1034,4 15 0,0
20.01.2020 18:00:00 7,8 -3,4 23 12 47 26 NNE 1033,7 - 0,0
20.01.2020 17:00:00 8,0 -3,2 31 17 49 27 NNE 1033,2 - 0,0
20.01.2020 16:00:00 8,1 -3,1 19 11 44 24 NE 1033,4 15 -
20.01.2020 15:00:00 8,5 -4,0 26 14 44 24 NNE 1033,1 - 0,0
20.01.2020 14:00:00 8,1 -3,4 25 13 42 23 N 1033,1 - 0,0
20.01.2020 13:00:00 7,5 -4,6 26 14 46 25 N 1033,8 15 0,0
20.01.2020 12:00:00 6,9 -4,8 30 16 51 28 NNE 1034,4 - 0,0
20.01.2020 11:00:00 6,5 -4,9 27 15 57 31 NNE 1034,9 - 0,0
20.01.2020 10:00:00 6,0 -5,1 28 15 52 28 NNE 1034,2 - 0,0
20.01.2020 09:00:00 5,8 -4,7 27 14 57 31 NNE 1033,4 - 0,0
20.01.2020 08:00:00 5,7 -4,5 27 15 44 24 NNE 1032,7 - 0,0
20.01.2020 07:00:00 5,6 -4,3 23 12 39 21 N 1032,3 - 0,0
20.01.2020 06:00:00 5,4 -4,7 16 9 51 28 N 1032,4 - 0,0
20.01.2020 05:00:00 5,1 -4,8 29 15 53 29 N 1031,7 - 0,0
20.01.2020 04:00:00 5,1 -5,0 29 16 48 26 N 1031,9 - 0,0
20.01.2020 03:00:00 5,5 -4,9 16 8 33 18 N 1032,2 - 0,0
20.01.2020 02:00:00 5,7 -5,0 21 12 41 22 N 1032,0 - 0,0
20.01.2020 01:00:00 6,0 -5,1 25 13 43 23 N 1031,6 - 0,0
20.01.2020 00:00:00 6,0 -4,8 20 11 42 23 N 1031,7 - 0,0
19.01.2020 23:00:00 6,0 -4,8 20 11 36 20 N 1031,4 - 0,0
19.01.2020 22:00:00 5,8 -4,9 18 10 34 19 N 1031,2 - 0,0
19.01.2020 21:00:00 6,2 -4,9 19 10 45 24 N 1030,6 - 0,0
19.01.2020 20:00:00 6,6 -4,5 16 9 28 15 N 1030,1 - 0,0
19.01.2020 19:00:00 7,2 -4,9 16 8 44 24 N 1029,4 20 0,0
19.01.2020 18:00:00 8,2 -5,7 31 17 66 36 N 1028,4 - 0,0
19.01.2020 17:00:00 9,0 -6,1 35 19 65 35 NNE 1028,0 - 0,0
19.01.2020 16:00:00 9,6 -6,3 33 18 55 30 NNE 1027,4 - 0,0
19.01.2020 15:00:00 9,7 -5,1 29 16 51 27 N 1026,9 - 0,0
19.01.2020 14:00:00 9,2 -5,5 34 18 65 35 NNE 1026,7 - 0,0
19.01.2020 13:00:00 8,8 -5,1 37 20 62 33 NNE 1026,6 - 0,0
19.01.2020 12:00:00 8,2 -5,3 40 22 67 36 NNE 1026,8 - 0,0
19.01.2020 11:00:00 7,8 -4,7 39 21 68 37 NNE 1026,3 - 0,0
19.01.2020 10:00:00 7,2 -4,6 39 21 80 43 NNE 1025,3 - 0,0
19.01.2020 09:00:00 7,1 -4,4 41 22 72 39 NNE 1024,2 - 0,0
19.01.2020 08:00:00 7,0 -4,1 44 24 82 44 NNE 1023,3 - 0,0
19.01.2020 07:00:00 7,0 -4,1 44 24 83 45 NNE 1022,6 - 0,0
19.01.2020 06:00:00 7,0 -3,8 41 22 63 34 NNE 1022,7 - 0,0
19.01.2020 05:00:00 6,9 -3,1 37 20 64 35 NNE 1022,5 - 0,0
19.01.2020 04:00:00 6,9 -2,0 36 20 63 34 NNE 1022,2 - 0,0
19.01.2020 03:00:00 6,8 -1,6 36 19 60 33 NNE 1022,3 - 0,0
19.01.2020 02:00:00 6,7 -1,7 31 17 56 31 NNE 1022,4 - 0,0
19.01.2020 01:00:00 7,0 -1,4 30 16 48 26 NNE 1022,4 - 0,0
19.01.2020 00:00:00 6,8 -1,1 26 14 47 26 NNE 1022,8 - 0,0
18.01.2020 23:00:00 6,9 -1,8 30 16 45 24 NNE 1022,7 - 0,0
18.01.2020 22:00:00 7,4 -0,8 15 8 24 13 NNE 1023,4 - 0,0
18.01.2020 21:00:00 8,0 -0,5 14 8 25 14 NNE 1023,7 - 0,0
18.01.2020 20:00:00 8,7 -0,9 13 7 21 11 NNE 1023,5 - 0,0
18.01.2020 19:00:00 8,8 -0,8 14 8 24 13 NNE 1023,6 - 0,0
18.01.2020 18:00:00 9,4 -0,5 13 7 22 12 NNE 1023,7 - 0,0
18.01.2020 17:00:00 9,7 0,3 13 7 22 12 NE 1023,9 - 0,0
18.01.2020 16:00:00 9,9 -0,1 10 5 22 12 E 1024,8 25 0,0
18.01.2020 15:00:00 10,3 1,1 8 4 17 9 E 1025,5 - 0,0
18.01.2020 14:00:00 10,5 -0,1 9 5 19 11 ESE 1026,3 - 0,0
18.01.2020 13:00:00 11,1 0,5 5 3 25 14 SSE 1027,3 - 0,0
18.01.2020 12:00:00 8,8 1,5 21 11 31 17 N 1028,1 - 0,0
18.01.2020 11:00:00 8,6 1,7 15 8 34 18 NW 1029,4 - 0,0
18.01.2020 10:00:00 7,5 2,0 18 10 46 25 NNW 1029,4 - 0,0
18.01.2020 09:00:00 6,9 2,0 11 6 45 24 NNW 1030,0 - 0,0
18.01.2020 08:00:00 7,6 1,4 28 15 49 26 NW 1029,3 - 0,0
18.01.2020 07:00:00 7,2 2,1 16 9 34 18 WNW 1030,1 20 0,0
18.01.2020 06:00:00 7,6 2,3 16 9 42 23 W 1030,0 - 0,0
18.01.2020 05:00:00 8,1 1,5 20 11 41 22 WNW 1029,9 - 0,0
18.01.2020 04:00:00 8,2 2,4 14 7 29 15 NW 1029,8 20 0,0
18.01.2020 03:00:00 7,9 2,8 7 4 25 13 WNW 1030,6 - 0,0
18.01.2020 02:00:00 8,2 2,6 12 6 49 26 NW 1029,6 - 0,0

tt = temperature
td = dewpoint
ff = wind speed
fx = gusts
dd = wind direction
ppp = reduced air pressure
vv = visibility
rr = precipitation

Next stations